Time,TemperatureF,DewpointF,PressureIn,WindDirection,WindDirectionDegrees,WindSpeedMPH,WindSpeedGustMPH,Humidity,HourlyPrecipIn,Conditions,Clouds,dailyrainin,SoftwareType,DateUTC
2013-02-16 00:00:00,49.0,36.9,29.85,West,270,2.0,13.0,63,0.00,,,0.00,Weather View 32 v70,2013-02-16 05:00:00,
2013-02-16 00:05:00,49.0,37.3,29.85,West,270,3.0,13.0,64,0.00,,,0.00,Weather View 32 v70,2013-02-16 05:05:00,
2013-02-16 00:10:00,49.0,37.3,29.85,NNW,338,3.0,13.0,64,0.00,,,0.00,Weather View 32 v70,2013-02-16 05:10:00,
2013-02-16 00:15:00,49.0,37.3,29.85,NNW,338,5.0,13.0,64,0.00,,,0.00,Weather View 32 v70,2013-02-16 05:15:00,
2013-02-16 00:20:00,49.0,37.7,29.85,North,0,5.0,13.0,65,0.00,,,0.00,Weather View 32 v70,2013-02-16 05:20:00,
2013-02-16 00:23:00,49.0,37.7,29.85,West,270,3.0,13.0,65,0.00,,,0.00,Weather View 32 v70,2013-02-16 05:23:00,
2013-02-16 00:28:00,49.0,37.7,29.85,North,0,6.0,13.0,65,0.00,,,0.00,Weather View 32 v70,2013-02-16 05:28:00,
2013-02-16 00:33:00,49.0,38.1,29.85,NNW,338,3.0,13.0,66,0.00,,,0.00,Weather View 32 v70,2013-02-16 05:33:00,
2013-02-16 00:38:00,48.0,37.2,29.84,ENE,68,5.0,13.0,66,0.00,,,0.00,Weather View 32 v70,2013-02-16 05:38:00,
2013-02-16 00:43:00,48.0,37.5,29.84,North,0,5.0,13.0,67,0.00,,,0.00,Weather View 32 v70,2013-02-16 05:43:00,
2013-02-16 00:48:00,48.0,37.5,29.85,North,0,3.0,13.0,67,0.00,,,0.00,Weather View 32 v70,2013-02-16 05:48:00,
2013-02-16 00:53:00,48.0,37.9,29.85,NNW,338,3.0,13.0,68,0.00,,,0.00,Weather View 32 v70,2013-02-16 05:53:00,
2013-02-16 00:58:00,48.0,38.3,29.85,North,0,3.0,10.0,69,0.00,,,0.00,Weather View 32 v70,2013-02-16 05:58:00,
2013-02-16 01:03:00,47.0,37.3,29.85,NNW,338,3.0,9.0,69,0.00,,,0.00,Weather View 32 v70,2013-02-16 06:03:00,
2013-02-16 01:08:00,47.0,37.7,29.85,North,0,3.0,8.0,70,0.00,,,0.00,Weather View 32 v70,2013-02-16 06:08:00,
2013-02-16 01:13:00,47.0,38.1,29.85,North,0,5.0,8.0,71,0.00,,,0.00,Weather View 32 v70,2013-02-16 06:13:00,
2013-02-16 01:18:00,47.0,38.1,29.85,NNW,338,3.0,8.0,71,0.00,,,0.00,Weather View 32 v70,2013-02-16 06:18:00,
2013-02-16 01:23:00,47.0,38.4,29.86,NNW,338,5.0,8.0,72,0.00,,,0.00,Weather View 32 v70,2013-02-16 06:23:00,
2013-02-16 01:28:00,47.0,38.4,29.86,North,0,4.0,8.0,72,0.00,,,0.00,Weather View 32 v70,2013-02-16 06:28:00,
2013-02-16 01:33:00,47.0,38.4,29.86,ENE,68,3.0,8.0,72,0.00,,,0.00,Weather View 32 v70,2013-02-16 06:33:00,
2013-02-16 01:38:00,47.0,38.4,29.85,ENE,68,4.0,8.0,72,0.00,,,0.00,Weather View 32 v70,2013-02-16 06:38:00,
2013-02-16 01:43:00,47.0,38.1,29.85,North,0,3.0,10.0,71,0.00,,,0.00,Weather View 32 v70,2013-02-16 06:43:00,
2013-02-16 01:48:00,47.0,38.1,29.85,North,0,3.0,10.0,71,0.00,,,0.00,Weather View 32 v70,2013-02-16 06:48:00,
2013-02-16 01:53:00,47.0,38.1,29.85,North,0,6.0,10.0,71,0.00,,,0.00,Weather View 32 v70,2013-02-16 06:53:00,
2013-02-16 01:58:00,46.0,37.5,29.85,ENE,68,3.0,10.0,72,0.00,,,0.00,Weather View 32 v70,2013-02-16 06:58:00,
2013-02-16 02:03:00,46.0,37.8,29.85,ENE,68,4.0,10.0,73,0.00,,,0.00,Weather View 32 v70,2013-02-16 07:03:00,
2013-02-16 02:08:00,46.0,38.2,29.85,North,0,4.0,10.0,74,0.00,,,0.00,Weather View 32 v70,2013-02-16 07:08:00,
2013-02-16 02:13:00,46.0,38.2,29.85,North,0,8.0,10.0,74,0.00,,,0.00,Weather View 32 v70,2013-02-16 07:13:00,
2013-02-16 02:18:00,45.0,37.2,29.85,ENE,68,6.0,10.0,74,0.00,,,0.00,Weather View 32 v70,2013-02-16 07:18:00,
2013-02-16 02:23:00,45.0,37.2,29.85,ENE,68,5.0,10.0,74,0.00,,,0.00,Weather View 32 v70,2013-02-16 07:23:00,
2013-02-16 02:28:00,45.0,37.5,29.85,ENE,68,5.0,10.0,75,0.00,,,0.00,Weather View 32 v70,2013-02-16 07:28:00,
2013-02-16 02:33:00,45.0,37.5,29.85,ENE,68,3.0,10.0,75,0.00,,,0.00,Weather View 32 v70,2013-02-16 07:33:00,
2013-02-16 02:38:00,45.0,37.5,29.85,ENE,68,4.0,10.0,75,0.00,,,0.00,Weather View 32 v70,2013-02-16 07:38:00,
2013-02-16 02:43:00,45.0,37.5,29.85,North,0,5.0,10.0,75,0.00,,,0.00,Weather View 32 v70,2013-02-16 07:43:00,
2013-02-16 02:48:00,45.0,37.2,29.85,ENE,68,7.0,10.0,74,0.00,,,0.00,Weather View 32 v70,2013-02-16 07:48:00,
2013-02-16 02:53:00,44.0,36.2,29.85,ENE,68,3.0,10.0,74,0.00,,,0.00,Weather View 32 v70,2013-02-16 07:53:00,
2013-02-16 02:58:00,44.0,35.9,29.85,ENE,68,5.0,10.0,73,0.00,,,0.00,Weather View 32 v70,2013-02-16 07:58:00,
2013-02-16 03:03:00,44.0,36.2,29.85,ENE,68,3.0,10.0,74,0.00,,,0.00,Weather View 32 v70,2013-02-16 08:03:00,
2013-02-16 03:08:00,44.0,36.2,29.85,ENE,68,2.0,10.0,74,0.00,,,0.00,Weather View 32 v70,2013-02-16 08:08:00,
2013-02-16 03:13:00,44.0,36.6,29.85,ENE,68,3.0,10.0,75,0.00,,,0.00,Weather View 32 v70,2013-02-16 08:13:00,
2013-02-16 03:18:00,44.0,36.6,29.85,ENE,68,3.0,10.0,75,0.00,,,0.00,Weather View 32 v70,2013-02-16 08:18:00,
2013-02-16 03:23:00,44.0,36.6,29.85,North,0,1.0,10.0,75,0.00,,,0.00,Weather View 32 v70,2013-02-16 08:23:00,
2013-02-16 03:28:00,44.0,36.6,29.85,ENE,68,6.0,10.0,75,0.00,,,0.00,Weather View 32 v70,2013-02-16 08:28:00,
2013-02-16 03:33:00,44.0,36.6,29.85,ENE,68,3.0,10.0,75,0.00,,,0.00,Weather View 32 v70,2013-02-16 08:33:00,
2013-02-16 03:38:00,44.0,36.6,29.85,ENE,68,2.0,10.0,75,0.00,,,0.00,Weather View 32 v70,2013-02-16 08:38:00,
2013-02-16 03:43:00,44.0,36.6,29.85,North,0,2.0,10.0,75,0.00,,,0.00,Weather View 32 v70,2013-02-16 08:43:00,
2013-02-16 03:48:00,44.0,36.6,29.85,North,0,3.0,10.0,75,0.00,,,0.00,Weather View 32 v70,2013-02-16 08:48:00,
2013-02-16 03:53:00,44.0,36.2,29.85,ENE,68,8.0,10.0,74,0.00,,,0.00,Weather View 32 v70,2013-02-16 08:53:00,
2013-02-16 03:58:00,44.0,35.9,29.85,North,0,6.0,10.0,73,0.00,,,0.00,Weather View 32 v70,2013-02-16 08:58:00,
2013-02-16 04:03:00,44.0,35.5,29.85,ENE,68,3.0,13.0,72,0.00,,,0.00,Weather View 32 v70,2013-02-16 09:03:00,
2013-02-16 04:08:00,44.0,35.5,29.85,North,0,3.0,13.0,72,0.00,,,0.00,Weather View 32 v70,2013-02-16 09:08:00,
2013-02-16 04:13:00,44.0,35.2,29.85,North,0,5.0,13.0,71,0.00,,,0.00,Weather View 32 v70,2013-02-16 09:13:00,
2013-02-16 04:18:00,44.0,35.2,29.85,North,0,5.0,13.0,71,0.01,,,0.01,Weather View 32 v70,2013-02-16 09:18:00,
2013-02-16 04:23:00,43.0,33.9,29.85,North,0,5.0,13.0,70,0.01,,,0.01,Weather View 32 v70,2013-02-16 09:23:00,
2013-02-16 04:28:00,43.0,33.9,29.85,North,0,5.0,13.0,70,0.01,,,0.01,Weather View 32 v70,2013-02-16 09:28:00,
2013-02-16 04:33:00,43.0,33.9,29.85,ENE,68,4.0,13.0,70,0.01,,,0.01,Weather View 32 v70,2013-02-16 09:33:00,
2013-02-16 04:38:00,43.0,33.5,29.85,ENE,68,5.0,13.0,69,0.01,,,0.01,Weather View 32 v70,2013-02-16 09:38:00,
2013-02-16 04:43:00,43.0,33.5,29.86,ENE,68,1.0,13.0,69,0.01,,,0.01,Weather View 32 v70,2013-02-16 09:43:00,
2013-02-16 04:48:00,43.0,33.5,29.86,North,0,1.0,13.0,69,0.01,,,0.01,Weather View 32 v70,2013-02-16 09:48:00,
2013-02-16 04:53:00,43.0,33.5,29.86,ENE,68,4.0,13.0,69,0.01,,,0.01,Weather View 32 v70,2013-02-16 09:53:00,
2013-02-16 04:58:00,43.0,33.5,29.86,ENE,68,4.0,13.0,69,0.01,,,0.01,Weather View 32 v70,2013-02-16 09:58:00,
2013-02-16 05:03:00,43.0,33.1,29.87,North,0,4.0,10.0,68,0.01,,,0.01,Weather View 32 v70,2013-02-16 10:03:00,
2013-02-16 05:08:00,43.0,33.1,29.87,North,0,2.0,10.0,68,0.01,,,0.01,Weather View 32 v70,2013-02-16 10:08:00,
2013-02-16 05:13:00,43.0,33.1,29.87,ENE,68,4.0,10.0,68,0.01,,,0.01,Weather View 32 v70,2013-02-16 10:13:00,
2013-02-16 05:18:00,43.0,33.1,29.87,ENE,68,5.0,10.0,68,0.00,,,0.01,Weather View 32 v70,2013-02-16 10:18:00,
2013-02-16 05:23:00,43.0,33.1,29.87,ENE,68,10.0,12.0,68,0.00,,,0.01,Weather View 32 v70,2013-02-16 10:23:00,
2013-02-16 05:28:00,42.0,33.3,29.86,North,0,6.0,16.0,71,0.00,,,0.01,Weather View 32 v70,2013-02-16 10:28:00,
2013-02-16 05:34:00,41.0,33.7,29.86,North,0,8.0,16.0,75,0.00,,,0.01,Weather View 32 v70,2013-02-16 10:34:00,
2013-02-16 05:39:00,40.0,34.0,29.86,ENE,68,5.0,16.0,79,0.00,,,0.01,Weather View 32 v70,2013-02-16 10:39:00,
2013-02-16 05:44:00,40.0,34.6,29.87,ENE,68,4.0,16.0,81,0.00,,,0.01,Weather View 32 v70,2013-02-16 10:44:00,
2013-02-16 05:49:00,40.0,35.2,29.87,North,0,5.0,16.0,83,0.00,,,0.01,Weather View 32 v70,2013-02-16 10:49:00,
2013-02-16 05:54:00,40.0,35.6,29.87,ENE,68,3.0,16.0,84,0.00,,,0.01,Weather View 32 v70,2013-02-16 10:54:00,
2013-02-16 05:59:00,39.0,34.9,29.87,North,0,6.0,16.0,85,0.00,,,0.01,Weather View 32 v70,2013-02-16 10:59:00,
2013-02-16 06:04:00,39.0,35.2,29.87,NNW,338,6.0,16.0,86,0.00,,,0.01,Weather View 32 v70,2013-02-16 11:04:00,
2013-02-16 06:09:00,39.0,35.5,29.87,NNW,338,9.0,16.0,87,0.00,,,0.01,Weather View 32 v70,2013-02-16 11:09:00,
2013-02-16 06:14:00,38.0,35.0,29.88,North,0,3.0,16.0,89,0.00,,,0.01,Weather View 32 v70,2013-02-16 11:14:00,
2013-02-16 06:19:00,38.0,35.3,29.88,North,0,6.0,16.0,90,0.00,,,0.01,Weather View 32 v70,2013-02-16 11:19:00,
2013-02-16 06:24:00,38.0,35.6,29.88,ENE,68,2.0,16.0,91,0.00,,,0.01,Weather View 32 v70,2013-02-16 11:24:00,
2013-02-16 06:29:00,38.0,35.9,29.88,NNW,338,1.0,14.0,92,0.00,,,0.02,Weather View 32 v70,2013-02-16 11:29:00,
2013-02-16 06:34:00,38.0,36.2,29.88,ENE,68,3.0,13.0,93,0.01,,,0.02,Weather View 32 v70,2013-02-16 11:34:00,
2013-02-16 06:39:00,37.0,35.2,29.88,ENE,68,5.0,13.0,93,0.01,,,0.02,Weather View 32 v70,2013-02-16 11:39:00,
2013-02-16 06:44:00,37.0,35.4,29.87,ENE,68,7.0,13.0,94,0.01,,,0.02,Weather View 32 v70,2013-02-16 11:44:00,
2013-02-16 06:49:00,37.0,35.7,29.88,ENE,68,3.0,13.0,95,0.02,,,0.03,Weather View 32 v70,2013-02-16 11:49:00,
2013-02-16 06:54:00,37.0,35.7,29.87,ENE,68,3.0,13.0,95,0.02,,,0.03,Weather View 32 v70,2013-02-16 11:54:00,
2013-02-16 06:59:00,37.0,36.0,29.87,North,0,3.0,13.0,96,0.02,,,0.03,Weather View 32 v70,2013-02-16 11:59:00,
2013-02-16 07:04:00,37.0,36.2,29.87,ENE,68,5.0,11.0,97,0.02,,,0.03,Weather View 32 v70,2013-02-16 12:04:00,
2013-02-16 07:09:00,37.0,36.2,29.87,North,0,3.0,11.0,97,0.02,,,0.03,Weather View 32 v70,2013-02-16 12:09:00,
2013-02-16 07:14:00,37.0,36.5,29.87,ENE,68,5.0,10.0,98,0.03,,,0.04,Weather View 32 v70,2013-02-16 12:14:00,
2013-02-16 07:19:00,37.0,36.5,29.87,ENE,68,6.0,10.0,98,0.03,,,0.04,Weather View 32 v70,2013-02-16 12:19:00,
2013-02-16 07:24:00,37.0,36.7,29.87,North,0,3.0,10.0,99,0.03,,,0.04,Weather View 32 v70,2013-02-16 12:24:00,
2013-02-16 07:29:00,37.0,36.7,29.87,ENE,68,3.0,10.0,99,0.02,,,0.04,Weather View 32 v70,2013-02-16 12:29:00,
2013-02-16 07:34:00,37.0,36.7,29.87,North,0,3.0,10.0,99,0.02,,,0.04,Weather View 32 v70,2013-02-16 12:34:00,
2013-02-16 07:39:00,37.0,36.7,29.87,ENE,68,3.0,9.0,99,0.02,,,0.04,Weather View 32 v70,2013-02-16 12:39:00,
2013-02-16 07:44:00,37.0,37.0,29.87,ENE,68,4.0,9.0,100,0.02,,,0.04,Weather View 32 v70,2013-02-16 12:44:00,
2013-02-16 07:49:00,37.0,37.0,29.87,ENE,68,3.0,8.0,100,0.01,,,0.04,Weather View 32 v70,2013-02-16 12:49:00,
2013-02-16 07:54:00,37.0,37.0,29.87,ENE,68,4.0,8.0,100,0.01,,,0.04,Weather View 32 v70,2013-02-16 12:54:00,
2013-02-16 07:59:00,37.0,37.0,29.86,ENE,68,3.0,8.0,100,0.02,,,0.05,Weather View 32 v70,2013-02-16 12:59:00,
2013-02-16 08:05:00,36.0,36.0,29.86,North,0,5.0,8.0,100,0.02,,,0.05,Weather View 32 v70,2013-02-16 13:05:00,
2013-02-16 08:10:00,36.0,36.0,29.86,ENE,68,3.0,8.0,100,0.02,,,0.05,Weather View 32 v70,2013-02-16 13:10:00,
2013-02-16 08:15:00,36.0,36.0,29.86,North,0,2.0,8.0,100,0.02,,,0.06,Weather View 32 v70,2013-02-16 13:15:00,
2013-02-16 08:20:00,36.0,36.0,29.86,North,0,3.0,8.0,100,0.02,,,0.06,Weather View 32 v70,2013-02-16 13:20:00,
2013-02-16 08:25:00,36.0,36.0,29.86,ENE,68,1.0,8.0,100,0.02,,,0.06,Weather View 32 v70,2013-02-16 13:25:00,
2013-02-16 08:30:00,36.0,36.0,29.86,North,0,3.0,8.0,100,0.02,,,0.06,Weather View 32 v70,2013-02-16 13:30:00,
2013-02-16 08:35:00,36.0,36.0,29.86,ENE,68,1.0,8.0,100,0.02,,,0.06,Weather View 32 v70,2013-02-16 13:35:00,
2013-02-16 08:40:00,36.0,36.0,29.86,ENE,68,2.0,8.0,100,0.03,,,0.07,Weather View 32 v70,2013-02-16 13:40:00,
2013-02-16 08:45:00,36.0,36.0,29.86,ENE,68,2.0,8.0,100,0.03,,,0.07,Weather View 32 v70,2013-02-16 13:45:00,
2013-02-16 08:50:00,36.0,36.0,29.86,East,90,2.0,8.0,100,0.03,,,0.07,Weather View 32 v70,2013-02-16 13:50:00,
2013-02-16 08:55:00,36.0,36.0,29.86,North,0,1.0,8.0,100,0.04,,,0.08,Weather View 32 v70,2013-02-16 13:55:00,
2013-02-16 09:00:00,36.0,36.0,29.86,East,90,0.0,8.0,100,0.03,,,0.08,Weather View 32 v70,2013-02-16 14:00:00,
2013-02-16 09:05:00,36.0,36.0,29.86,North,0,2.0,8.0,100,0.03,,,0.08,Weather View 32 v70,2013-02-16 14:05:00,
2013-02-16 09:10:00,36.0,36.0,29.87,East,90,0.0,8.0,100,0.04,,,0.09,Weather View 32 v70,2013-02-16 14:10:00,
2013-02-16 09:15:00,36.0,36.0,29.87,NNW,338,3.0,6.0,100,0.03,,,0.09,Weather View 32 v70,2013-02-16 14:15:00,
2013-02-16 09:20:00,36.0,36.0,29.86,ENE,68,1.0,6.0,100,0.03,,,0.09,Weather View 32 v70,2013-02-16 14:20:00,
2013-02-16 09:25:00,36.0,36.0,29.86,ENE,68,3.0,5.0,100,0.03,,,0.09,Weather View 32 v70,2013-02-16 14:25:00,
2013-02-16 09:30:00,36.0,36.0,29.86,ENE,68,4.0,8.0,100,0.04,,,0.10,Weather View 32 v70,2013-02-16 14:30:00,
2013-02-16 09:35:00,36.0,36.0,29.86,ENE,68,2.0,8.0,100,0.04,,,0.10,Weather View 32 v70,2013-02-16 14:35:00,
2013-02-16 09:40:00,36.0,36.0,29.86,ENE,68,2.0,8.0,100,0.03,,,0.10,Weather View 32 v70,2013-02-16 14:40:00,
2013-02-16 09:45:00,36.0,36.0,29.86,ENE,68,4.0,8.0,100,0.04,,,0.11,Weather View 32 v70,2013-02-16 14:45:00,
2013-02-16 09:50:00,36.0,36.0,29.86,East,90,2.0,8.0,100,0.04,,,0.11,Weather View 32 v70,2013-02-16 14:50:00,
2013-02-16 09:55:00,36.0,36.0,29.85,East,90,2.0,8.0,100,0.03,,,0.11,Weather View 32 v70,2013-02-16 14:55:00,
2013-02-16 10:00:00,37.0,37.0,29.85,East,90,2.0,8.0,100,0.03,,,0.11,Weather View 32 v70,2013-02-16 15:00:00,
2013-02-16 10:05:00,37.0,37.0,29.85,ENE,68,0.0,8.0,100,0.03,,,0.11,Weather View 32 v70,2013-02-16 15:05:00,
2013-02-16 10:10:00,37.0,37.0,29.85,North,0,2.0,8.0,100,0.02,,,0.11,Weather View 32 v70,2013-02-16 15:10:00,
2013-02-16 10:15:00,37.0,37.0,29.85,East,90,1.0,8.0,100,0.02,,,0.11,Weather View 32 v70,2013-02-16 15:15:00,
2013-02-16 10:20:00,37.0,37.0,29.85,ENE,68,2.0,8.0,100,0.02,,,0.12,Weather View 32 v70,2013-02-16 15:20:00,
2013-02-16 10:25:00,37.0,37.0,29.85,North,0,3.0,8.0,100,0.03,,,0.12,Weather View 32 v70,2013-02-16 15:25:00,
2013-02-16 10:30:00,37.0,37.0,29.85,ENE,68,1.0,7.0,100,0.02,,,0.12,Weather View 32 v70,2013-02-16 15:30:00,
2013-02-16 10:36:00,37.0,37.0,29.85,West,270,3.0,6.0,100,0.02,,,0.12,Weather View 32 v70,2013-02-16 15:36:00,
2013-02-16 10:41:00,37.0,37.0,29.85,North,0,3.0,6.0,100,0.02,,,0.12,Weather View 32 v70,2013-02-16 15:41:00,
2013-02-16 10:46:00,37.0,37.0,29.84,ENE,68,5.0,6.0,100,0.02,,,0.13,Weather View 32 v70,2013-02-16 15:46:00,
2013-02-16 10:51:00,37.0,37.0,29.84,ENE,68,3.0,6.0,100,0.02,,,0.13,Weather View 32 v70,2013-02-16 15:51:00,
2013-02-16 10:56:00,37.0,37.0,29.84,East,90,2.0,6.0,100,0.02,,,0.13,Weather View 32 v70,2013-02-16 15:56:00,
2013-02-16 11:01:00,37.0,37.0,29.84,ENE,68,3.0,6.0,100,0.02,,,0.13,Weather View 32 v70,2013-02-16 16:01:00,
2013-02-16 11:06:00,37.0,37.0,29.85,ENE,68,2.0,6.0,100,0.03,,,0.14,Weather View 32 v70,2013-02-16 16:06:00,
2013-02-16 11:11:00,37.0,37.0,29.85,ENE,68,1.0,6.0,100,0.03,,,0.14,Weather View 32 v70,2013-02-16 16:11:00,
2013-02-16 11:16:00,37.0,37.0,29.84,East,90,1.0,6.0,100,0.03,,,0.14,Weather View 32 v70,2013-02-16 16:16:00,
2013-02-16 11:21:00,37.0,37.0,29.85,ENE,68,0.0,6.0,100,0.03,,,0.14,Weather View 32 v70,2013-02-16 16:21:00,
2013-02-16 11:26:00,37.0,37.0,29.85,ENE,68,0.0,6.0,100,0.02,,,0.14,Weather View 32 v70,2013-02-16 16:26:00,
2013-02-16 11:31:00,38.0,38.0,29.84,East,90,3.0,6.0,100,0.02,,,0.14,Weather View 32 v70,2013-02-16 16:31:00,
2013-02-16 11:36:00,38.0,38.0,29.84,East,90,2.0,6.0,100,0.02,,,0.14,Weather View 32 v70,2013-02-16 16:36:00,
2013-02-16 11:41:00,38.0,38.0,29.83,ENE,68,4.0,7.0,100,0.02,,,0.14,Weather View 32 v70,2013-02-16 16:41:00,
2013-02-16 11:46:00,38.0,38.0,29.83,ENE,68,2.0,7.0,100,0.01,,,0.14,Weather View 32 v70,2013-02-16 16:46:00,
2013-02-16 11:51:00,38.0,38.0,29.83,ENE,68,2.0,7.0,100,0.01,,,0.14,Weather View 32 v70,2013-02-16 16:51:00,
2013-02-16 11:56:00,38.0,38.0,29.83,East,90,1.0,7.0,100,0.01,,,0.14,Weather View 32 v70,2013-02-16 16:56:00,
2013-02-16 12:01:00,37.0,37.0,29.83,East,90,5.0,7.0,100,0.01,,,0.14,Weather View 32 v70,2013-02-16 17:01:00,
2013-02-16 12:06:00,37.0,37.0,29.83,ENE,68,4.0,7.0,100,0.00,,,0.14,Weather View 32 v70,2013-02-16 17:06:00,
2013-02-16 12:11:00,38.0,38.0,29.83,East,90,1.0,7.0,100,0.00,,,0.14,Weather View 32 v70,2013-02-16 17:11:00,
2013-02-16 12:16:00,37.0,37.0,29.81,East,90,4.0,7.0,100,0.00,,,0.14,Weather View 32 v70,2013-02-16 17:16:00,
2013-02-16 12:21:00,37.0,37.0,29.81,ENE,68,4.0,8.0,100,0.01,,,0.15,Weather View 32 v70,2013-02-16 17:21:00,
2013-02-16 12:26:00,37.0,37.0,29.81,ENE,68,3.0,8.0,100,0.01,,,0.15,Weather View 32 v70,2013-02-16 17:26:00,
2013-02-16 12:31:00,38.0,38.0,29.80,North,0,1.0,8.0,100,0.01,,,0.15,Weather View 32 v70,2013-02-16 17:31:00,
2013-02-16 12:36:00,38.0,38.0,29.80,East,90,1.0,8.0,100,0.01,,,0.15,Weather View 32 v70,2013-02-16 17:36:00,
2013-02-16 12:41:00,38.0,38.0,29.80,East,90,3.0,8.0,100,0.01,,,0.15,Weather View 32 v70,2013-02-16 17:41:00,
2013-02-16 12:46:00,38.0,38.0,29.80,East,90,1.0,8.0,100,0.01,,,0.15,Weather View 32 v70,2013-02-16 17:46:00,
2013-02-16 12:51:00,38.0,38.0,29.80,North,0,1.0,8.0,100,0.01,,,0.15,Weather View 32 v70,2013-02-16 17:51:00,
2013-02-16 12:56:00,38.0,38.0,29.80,East,90,1.0,8.0,100,0.01,,,0.15,Weather View 32 v70,2013-02-16 17:56:00,
2013-02-16 13:01:00,38.0,38.0,29.79,East,90,1.0,8.0,100,0.01,,,0.15,Weather View 32 v70,2013-02-16 18:01:00,
2013-02-16 13:06:00,38.0,38.0,29.78,ENE,68,2.0,8.0,100,0.01,,,0.15,Weather View 32 v70,2013-02-16 18:06:00,
2013-02-16 13:11:00,38.0,38.0,29.78,ENE,68,3.0,8.0,100,0.01,,,0.15,Weather View 32 v70,2013-02-16 18:11:00,
2013-02-16 13:16:00,38.0,38.0,29.77,North,0,1.0,8.0,100,0.01,,,0.15,Weather View 32 v70,2013-02-16 18:16:00,
2013-02-16 13:21:00,39.0,39.0,29.77,East,90,1.0,7.0,100,0.00,,,0.15,Weather View 32 v70,2013-02-16 18:21:00,
2013-02-16 13:26:00,39.0,39.0,29.78,NNW,338,3.0,6.0,100,0.00,,,0.15,Weather View 32 v70,2013-02-16 18:26:00,
2013-02-16 13:31:00,38.0,38.0,29.78,ENE,68,0.0,6.0,100,0.00,,,0.15,Weather View 32 v70,2013-02-16 18:31:00,
2013-02-16 13:37:00,39.0,39.0,29.78,North,0,0.0,6.0,100,0.00,,,0.15,Weather View 32 v70,2013-02-16 18:37:00,
2013-02-16 13:42:00,39.0,39.0,29.78,NNW,338,3.0,5.0,100,0.00,,,0.15,Weather View 32 v70,2013-02-16 18:42:00,
2013-02-16 13:47:00,39.0,39.0,29.77,ENE,68,2.0,5.0,100,0.00,,,0.15,Weather View 32 v70,2013-02-16 18:47:00,
2013-02-16 13:52:00,39.0,39.0,29.77,North,0,1.0,5.0,100,0.00,,,0.15,Weather View 32 v70,2013-02-16 18:52:00,
2013-02-16 13:57:00,39.0,39.0,29.77,North,0,1.0,5.0,100,0.00,,,0.15,Weather View 32 v70,2013-02-16 18:57:00,
2013-02-16 14:02:00,39.0,39.0,29.77,WSW,248,1.0,5.0,100,0.00,,,0.15,Weather View 32 v70,2013-02-16 19:02:00,
2013-02-16 14:07:00,39.0,39.0,29.76,West,270,5.0,5.0,100,0.00,,,0.15,Weather View 32 v70,2013-02-16 19:07:00,
2013-02-16 14:12:00,39.0,38.7,29.77,East,90,0.0,6.0,99,0.00,,,0.15,Weather View 32 v70,2013-02-16 19:12:00,
2013-02-16 14:17:00,39.0,38.5,29.76,North,0,2.0,6.0,98,0.00,,,0.15,Weather View 32 v70,2013-02-16 19:17:00,
2013-02-16 14:22:00,39.0,38.2,29.75,NNW,338,4.0,6.0,97,0.00,,,0.15,Weather View 32 v70,2013-02-16 19:22:00,
2013-02-16 14:27:00,40.0,39.5,29.75,East,90,1.0,6.0,98,0.00,,,0.15,Weather View 32 v70,2013-02-16 19:27:00,
2013-02-16 14:32:00,40.0,39.2,29.75,East,90,2.0,6.0,97,0.00,,,0.15,Weather View 32 v70,2013-02-16 19:32:00,
2013-02-16 14:37:00,40.0,38.7,29.75,WSW,248,1.0,6.0,95,0.00,,,0.15,Weather View 32 v70,2013-02-16 19:37:00,
2013-02-16 14:42:00,41.0,39.4,29.74,North,0,1.0,6.0,94,0.00,,,0.15,Weather View 32 v70,2013-02-16 19:42:00,
2013-02-16 14:47:00,41.0,39.1,29.74,North,0,3.0,6.0,93,0.00,,,0.15,Weather View 32 v70,2013-02-16 19:47:00,
2013-02-16 14:52:00,41.0,38.3,29.74,East,90,1.0,6.0,90,0.00,,,0.15,Weather View 32 v70,2013-02-16 19:52:00,
2013-02-16 14:57:00,41.0,38.6,29.74,ENE,68,3.0,6.0,91,0.00,,,0.15,Weather View 32 v70,2013-02-16 19:57:00,
2013-02-16 15:02:00,41.0,38.3,29.74,East,90,7.0,8.0,90,0.00,,,0.15,Weather View 32 v70,2013-02-16 20:02:00,
2013-02-16 15:07:00,41.0,38.0,29.74,East,90,5.0,8.0,89,0.00,,,0.15,Weather View 32 v70,2013-02-16 20:07:00,
2013-02-16 15:12:00,41.0,37.7,29.74,ENE,68,1.0,8.0,88,0.00,,,0.15,Weather View 32 v70,2013-02-16 20:12:00,
2013-02-16 15:17:00,41.0,37.7,29.74,ENE,68,3.0,8.0,88,0.00,,,0.15,Weather View 32 v70,2013-02-16 20:17:00,
2013-02-16 15:22:00,41.0,37.7,29.74,ENE,68,2.0,8.0,88,0.00,,,0.15,Weather View 32 v70,2013-02-16 20:22:00,
2013-02-16 15:27:00,40.0,37.0,29.74,ENE,68,5.0,8.0,89,0.00,,,0.15,Weather View 32 v70,2013-02-16 20:27:00,
2013-02-16 15:32:00,39.0,36.6,29.74,North,0,5.0,10.0,91,0.00,,,0.15,Weather View 32 v70,2013-02-16 20:32:00,
2013-02-16 15:37:00,39.0,36.9,29.74,ENE,68,5.0,10.0,92,0.00,,,0.15,Weather View 32 v70,2013-02-16 20:37:00,
2013-02-16 15:42:00,39.0,37.1,29.73,East,90,4.0,10.0,93,0.00,,,0.15,Weather View 32 v70,2013-02-16 20:42:00,
2013-02-16 15:47:00,39.0,37.1,29.74,ENE,68,3.0,10.0,93,0.00,,,0.15,Weather View 32 v70,2013-02-16 20:47:00,
2013-02-16 15:52:00,39.0,37.1,29.74,East,90,2.0,10.0,93,0.00,,,0.15,Weather View 32 v70,2013-02-16 20:52:00,
2013-02-16 15:57:00,39.0,37.1,29.73,ENE,68,3.0,10.0,93,0.00,,,0.15,Weather View 32 v70,2013-02-16 20:57:00,
2013-02-16 16:02:00,39.0,37.1,29.74,East,90,4.0,10.0,93,0.00,,,0.15,Weather View 32 v70,2013-02-16 21:02:00,
2013-02-16 16:08:00,39.0,37.1,29.74,East,90,3.0,10.0,93,0.00,,,0.15,Weather View 32 v70,2013-02-16 21:08:00,
2013-02-16 16:13:00,40.0,37.9,29.74,ENE,68,3.0,10.0,92,0.00,,,0.15,Weather View 32 v70,2013-02-16 21:13:00,
2013-02-16 16:18:00,40.0,37.9,29.74,East,90,2.0,10.0,92,0.00,,,0.15,Weather View 32 v70,2013-02-16 21:18:00,
2013-02-16 16:23:00,40.0,37.6,29.74,North,0,3.0,10.0,91,0.00,,,0.15,Weather View 32 v70,2013-02-16 21:23:00,
2013-02-16 16:28:00,40.0,37.6,29.74,North,0,4.0,10.0,91,0.00,,,0.15,Weather View 32 v70,2013-02-16 21:28:00,
2013-02-16 16:33:00,39.0,36.3,29.74,ENE,68,4.0,9.0,90,0.00,,,0.15,Weather View 32 v70,2013-02-16 21:33:00,
2013-02-16 16:38:00,39.0,36.3,29.74,ENE,68,5.0,8.0,90,0.00,,,0.15,Weather View 32 v70,2013-02-16 21:38:00,
2013-02-16 16:43:00,39.0,36.3,29.74,ENE,68,2.0,8.0,90,0.00,,,0.15,Weather View 32 v70,2013-02-16 21:43:00,
2013-02-16 16:48:00,39.0,36.3,29.74,North,0,3.0,8.0,90,0.00,,,0.15,Weather View 32 v70,2013-02-16 21:48:00,
2013-02-16 16:53:00,38.0,35.3,29.75,North,0,11.0,13.0,90,0.00,,,0.15,Weather View 32 v70,2013-02-16 21:53:00,
2013-02-16 16:58:00,36.0,33.6,29.76,North,0,11.0,24.0,91,-0.15,,,0.15,Weather View 32 v70,2013-02-16 21:58:00,
2013-02-16 17:03:00,35.0,33.4,29.76,West,270,10.0,24.0,94,0.00,,,0.15,Weather View 32 v70,2013-02-16 22:03:00,
2013-02-16 17:08:00,34.0,33.0,29.76,NNW,338,6.0,24.0,96,0.00,,,0.15,Weather View 32 v70,2013-02-16 22:08:00,
2013-02-16 17:13:00,34.0,33.2,29.76,NNW,338,10.0,24.0,97,0.00,,,0.15,Weather View 32 v70,2013-02-16 22:13:00,
2013-02-16 17:18:00,34.0,33.5,29.76,NNW,338,3.0,24.0,98,0.00,,,0.15,Weather View 32 v70,2013-02-16 22:18:00,
2013-02-16 17:23:00,34.0,33.7,29.76,NNW,338,6.0,24.0,99,0.00,,,0.15,Weather View 32 v70,2013-02-16 22:23:00,
2013-02-16 17:28:00,34.0,34.0,29.76,North,0,4.0,24.0,100,0.00,,,0.15,Weather View 32 v70,2013-02-16 22:28:00,
2013-02-16 17:33:00,34.0,34.0,29.76,North,0,2.0,24.0,100,0.00,,,0.15,Weather View 32 v70,2013-02-16 22:33:00,
2013-02-16 17:38:00,34.0,34.0,29.77,North,0,1.0,24.0,100,0.00,,,0.15,Weather View 32 v70,2013-02-16 22:38:00,
2013-02-16 17:43:00,34.0,34.0,29.77,North,0,1.0,24.0,100,0.00,,,0.15,Weather View 32 v70,2013-02-16 22:43:00,
2013-02-16 17:48:00,34.0,34.0,29.77,NNW,338,2.0,24.0,100,0.00,,,0.15,Weather View 32 v70,2013-02-16 22:48:00,
2013-02-16 17:53:00,34.0,34.0,29.77,North,0,1.0,24.0,100,0.00,,,0.15,Weather View 32 v70,2013-02-16 22:53:00,
2013-02-16 17:58:00,34.0,34.0,29.77,North,0,3.0,16.0,100,0.00,,,0.15,Weather View 32 v70,2013-02-16 22:58:00,
2013-02-16 18:03:00,34.0,34.0,29.77,North,0,1.0,14.0,100,0.00,,,0.15,Weather View 32 v70,2013-02-16 23:03:00,
2013-02-16 18:08:00,34.0,34.0,29.78,ENE,68,2.0,13.0,100,0.00,,,0.15,Weather View 32 v70,2013-02-16 23:08:00,
2013-02-16 18:13:00,34.0,34.0,29.78,NNW,338,3.0,10.0,100,0.00,,,0.15,Weather View 32 v70,2013-02-16 23:13:00,
2013-02-16 18:18:00,34.0,34.0,29.78,North,0,3.0,8.0,100,0.00,,,0.15,Weather View 32 v70,2013-02-16 23:18:00,
2013-02-16 18:23:00,34.0,34.0,29.79,North,0,1.0,8.0,100,0.00,,,0.15,Weather View 32 v70,2013-02-16 23:23:00,
2013-02-16 18:28:00,34.0,34.0,29.79,NNW,338,0.0,6.0,100,0.00,,,0.15,Weather View 32 v70,2013-02-16 23:28:00,
2013-02-16 18:33:00,34.0,34.0,29.79,NNW,338,5.0,6.0,100,0.00,,,0.15,Weather View 32 v70,2013-02-16 23:33:00,
2013-02-16 18:39:00,34.0,34.0,29.79,North,0,4.0,8.0,100,0.00,,,0.15,Weather View 32 v70,2013-02-16 23:39:00,
2013-02-16 18:44:00,34.0,34.0,29.80,West,270,3.0,8.0,100,0.00,,,0.15,Weather View 32 v70,2013-02-16 23:44:00,
2013-02-16 18:49:00,34.0,34.0,29.80,NNW,338,7.0,8.0,100,0.00,,,0.15,Weather View 32 v70,2013-02-16 23:49:00,
2013-02-16 18:54:00,34.0,34.0,29.81,West,270,3.0,8.0,100,0.00,,,0.15,Weather View 32 v70,2013-02-16 23:54:00,
2013-02-16 18:59:00,34.0,34.0,29.81,NNW,338,5.0,8.0,100,0.00,,,0.15,Weather View 32 v70,2013-02-16 23:59:00,
2013-02-16 19:04:00,33.0,33.0,29.81,NNW,338,5.0,8.0,100,0.00,,,0.15,Weather View 32 v70,2013-02-17 00:04:00,
2013-02-16 19:09:00,33.0,33.0,29.81,NNW,338,6.0,9.0,100,0.00,,,0.15,Weather View 32 v70,2013-02-17 00:09:00,
2013-02-16 19:14:00,33.0,33.0,29.81,NNW,338,10.0,13.0,100,0.00,,,0.15,Weather View 32 v70,2013-02-17 00:14:00,
2013-02-16 19:19:00,33.0,33.0,29.81,North,0,7.0,13.0,100,0.00,,,0.15,Weather View 32 v70,2013-02-17 00:19:00,
2013-02-16 19:24:00,33.0,33.0,29.82,WSW,248,3.0,13.0,100,-0.15,,,0.15,Weather View 32 v70,2013-02-17 00:24:00,
2013-02-16 19:29:00,33.0,33.0,29.82,NNW,338,3.0,13.0,100,0.00,,,0.15,Weather View 32 v70,2013-02-17 00:29:00,
2013-02-16 19:34:00,33.0,33.0,29.82,North,0,3.0,13.0,100,0.00,,,0.15,Weather View 32 v70,2013-02-17 00:34:00,
2013-02-16 19:39:00,33.0,33.0,29.82,West,270,3.0,13.0,100,0.00,,,0.15,Weather View 32 v70,2013-02-17 00:39:00,
2013-02-16 19:44:00,33.0,33.0,29.83,NNW,338,8.0,13.0,100,0.00,,,0.15,Weather View 32 v70,2013-02-17 00:44:00,
2013-02-16 19:49:00,33.0,33.0,29.83,NNW,338,5.0,13.0,100,0.00,,,0.15,Weather View 32 v70,2013-02-17 00:49:00,
2013-02-16 19:54:00,33.0,33.0,29.83,West,270,3.0,13.0,100,0.00,,,0.15,Weather View 32 v70,2013-02-17 00:54:00,
2013-02-16 19:59:00,33.0,33.0,29.82,NNW,338,1.0,13.0,100,0.00,,,0.15,Weather View 32 v70,2013-02-17 00:59:00,
2013-02-16 20:04:00,33.0,33.0,29.82,NNW,338,1.0,13.0,100,0.00,,,0.15,Weather View 32 v70,2013-02-17 01:04:00,
2013-02-16 20:09:00,33.0,33.0,29.82,NNW,338,3.0,13.0,100,0.00,,,0.15,Weather View 32 v70,2013-02-17 01:09:00,
2013-02-16 20:14:00,33.0,33.0,29.82,West,270,1.0,13.0,100,0.00,,,0.15,Weather View 32 v70,2013-02-17 01:14:00,
2013-02-16 20:19:00,33.0,33.0,29.82,NNW,338,3.0,10.0,100,0.00,,,0.15,Weather View 32 v70,2013-02-17 01:19:00,
2013-02-16 20:24:00,33.0,33.0,29.82,NNW,338,1.0,10.0,100,0.00,,,0.15,Weather View 32 v70,2013-02-17 01:24:00,
2013-02-16 20:29:00,33.0,33.0,29.82,NNW,338,2.0,10.0,100,0.00,,,0.15,Weather View 32 v70,2013-02-17 01:29:00,
2013-02-16 20:34:00,33.0,33.0,29.82,West,270,2.0,10.0,100,0.00,,,0.15,Weather View 32 v70,2013-02-17 01:34:00,
2013-02-16 20:39:00,32.0,32.0,29.83,WSW,248,1.0,10.0,100,0.00,,,0.15,Weather View 32 v70,2013-02-17 01:39:00,
2013-02-16 20:44:00,32.0,32.0,29.83,West,270,3.0,10.0,100,0.00,,,0.15,Weather View 32 v70,2013-02-17 01:44:00,
2013-02-16 20:49:00,32.0,32.0,29.83,West,270,5.0,9.0,100,0.00,,,0.15,Weather View 32 v70,2013-02-17 01:49:00,
2013-02-16 20:54:00,32.0,32.0,29.83,West,270,3.0,6.0,100,0.00,,,0.15,Weather View 32 v70,2013-02-17 01:54:00,
2013-02-16 20:59:00,32.0,32.0,29.83,NNW,338,3.0,7.0,100,0.00,,,0.15,Weather View 32 v70,2013-02-17 01:59:00,
2013-02-16 21:04:00,32.0,32.0,29.83,West,270,3.0,7.0,100,0.00,,,0.15,Weather View 32 v70,2013-02-17 02:04:00,
2013-02-16 21:09:00,32.0,32.0,29.84,West,270,3.0,7.0,100,0.00,,,0.15,Weather View 32 v70,2013-02-17 02:09:00,
2013-02-16 21:14:00,31.0,31.0,29.84,NNW,338,2.0,7.0,100,0.00,,,0.15,Weather View 32 v70,2013-02-17 02:14:00,
2013-02-16 21:19:00,31.0,31.0,29.84,NNW,338,5.0,7.0,100,0.00,,,0.15,Weather View 32 v70,2013-02-17 02:19:00,
2013-02-16 21:24:00,31.0,31.0,29.84,West,270,3.0,7.0,100,0.00,,,0.15,Weather View 32 v70,2013-02-17 02:24:00,
2013-02-16 21:29:00,31.0,31.0,29.84,West,270,3.0,7.0,100,0.00,,,0.15,Weather View 32 v70,2013-02-17 02:29:00,
2013-02-16 21:35:00,31.0,31.0,29.85,West,270,3.0,7.0,100,0.00,,,0.15,Weather View 32 v70,2013-02-17 02:35:00,
2013-02-16 21:40:00,31.0,31.0,29.85,West,270,3.0,7.0,100,0.00,,,0.15,Weather View 32 v70,2013-02-17 02:40:00,
2013-02-16 21:45:00,31.0,31.0,29.85,WSW,248,1.0,7.0,100,0.00,,,0.15,Weather View 32 v70,2013-02-17 02:45:00,
2013-02-16 21:50:00,31.0,31.0,29.85,North,0,1.0,7.0,100,0.00,,,0.15,Weather View 32 v70,2013-02-17 02:50:00,
2013-02-16 21:55:00,31.0,31.0,29.85,West,270,1.0,7.0,100,0.00,,,0.15,Weather View 32 v70,2013-02-17 02:55:00,
2013-02-16 22:00:00,31.0,31.0,29.85,WSW,248,1.0,7.0,100,0.00,,,0.15,Weather View 32 v70,2013-02-17 03:00:00,
2013-02-16 22:05:00,31.0,31.0,29.86,NNW,338,3.0,7.0,100,0.00,,,0.15,Weather View 32 v70,2013-02-17 03:05:00,
2013-02-16 22:10:00,31.0,31.0,29.86,NNW,338,2.0,6.0,100,0.00,,,0.15,Weather View 32 v70,2013-02-17 03:10:00,
2013-02-16 22:15:00,31.0,31.0,29.86,West,270,2.0,6.0,100,0.00,,,0.15,Weather View 32 v70,2013-02-17 03:15:00,
2013-02-16 22:20:00,30.0,30.0,29.86,West,270,5.0,6.0,100,0.00,,,0.15,Weather View 32 v70,2013-02-17 03:20:00,
2013-02-16 22:25:00,30.0,30.0,29.86,South,180,2.0,6.0,100,0.00,,,0.15,Weather View 32 v70,2013-02-17 03:25:00,
2013-02-16 22:30:00,30.0,30.0,29.86,WSW,248,3.0,6.0,100,0.00,,,0.15,Weather View 32 v70,2013-02-17 03:30:00,
2013-02-16 22:35:00,30.0,30.0,29.87,WSW,248,4.0,6.0,100,0.00,,,0.15,Weather View 32 v70,2013-02-17 03:35:00,
2013-02-16 22:40:00,30.0,30.0,29.86,NNW,338,3.0,6.0,100,0.00,,,0.15,Weather View 32 v70,2013-02-17 03:40:00,
2013-02-16 22:45:00,30.0,30.0,29.87,South,180,3.0,6.0,100,0.00,,,0.15,Weather View 32 v70,2013-02-17 03:45:00,
2013-02-16 22:50:00,30.0,30.0,29.87,NNW,338,1.0,6.0,100,0.00,,,0.15,Weather View 32 v70,2013-02-17 03:50:00,
2013-02-16 22:55:00,29.0,29.0,29.87,WSW,248,3.0,6.0,100,0.00,,,0.15,Weather View 32 v70,2013-02-17 03:55:00,
2013-02-16 23:00:00,29.0,29.0,29.87,North,0,4.0,6.0,100,0.00,,,0.15,Weather View 32 v70,2013-02-17 04:00:00,
2013-02-16 23:05:00,29.0,29.0,29.87,West,270,4.0,7.0,100,0.00,,,0.15,Weather View 32 v70,2013-02-17 04:05:00,
2013-02-16 23:10:00,29.0,29.0,29.87,ENE,68,1.0,7.0,100,0.00,,,0.15,Weather View 32 v70,2013-02-17 04:10:00,
2013-02-16 23:15:00,29.0,29.0,29.87,NNW,338,3.0,7.0,100,0.00,,,0.15,Weather View 32 v70,2013-02-17 04:15:00,
2013-02-16 23:20:00,29.0,29.0,29.88,NNW,338,3.0,7.0,100,0.00,,,0.15,Weather View 32 v70,2013-02-17 04:20:00,
2013-02-16 23:25:00,29.0,29.0,29.88,West,270,2.0,7.0,100,0.00,,,0.15,Weather View 32 v70,2013-02-17 04:25:00,
2013-02-16 23:30:00,29.0,29.0,29.88,WSW,248,3.0,7.0,100,0.00,,,0.15,Weather View 32 v70,2013-02-17 04:30:00,
2013-02-16 23:35:00,29.0,29.0,29.88,NNW,338,3.0,7.0,100,0.00,,,0.15,Weather View 32 v70,2013-02-17 04:35:00,
2013-02-16 23:40:00,29.0,29.0,29.88,West,270,3.0,8.0,100,0.00,,,0.15,Weather View 32 v70,2013-02-17 04:40:00,
2013-02-16 23:45:00,29.0,29.0,29.88,WSW,248,2.0,8.0,100,0.00,,,0.15,Weather View 32 v70,2013-02-17 04:45:00,
2013-02-16 23:50:00,29.0,29.0,29.88,West,270,1.0,8.0,100,0.00,,,0.15,Weather View 32 v70,2013-02-17 04:50:00,
2013-02-16 23:55:00,29.0,29.0,29.89,West,270,5.0,8.0,100,0.00,,,0.15,Weather View 32 v70,2013-02-17 04:55:00,